Temp
-10 -10 -10 -10 -10 -10 -10 -10 -10 -10 -10 -10 -10 -10 -10 -10 -11 -11 -11 -11 -11 -11 -11 -11 -11 -11 -11 -11 -11 -12 -12 -12 -12 -12 -12 -11 -11 -11 -11 -10 -10 -10 -10 -9 -9 -9 -9 -9 -9 -8 -8 -8 -8 -8 -8 -8 -9 -9 -8 -8 -8 -8 -7 -7 -7 -7 -6 -6 -5
-10 -10 -10 -10 -10 -10 -10 -10 -10 -10 -10 -10 -10 -10 -10 -11 -11 -11 -11 -11 -12 -11 -11 -11 -11 -11 -11 -11 -11 -12 -12 -12 -12 -12 -12 -11 -11 -11 -11 -10 -10 -10 -10 -10 -9 -9 -9 -9 -9 -9 -8 -8 -8 -8 -8 -8 -9 -9 -9 -9 -8 -8 -8 -7 -7 -7 -6 -6 -5
-10 -10 -10 -10 -10 -10 -10 -10 -10 -10 -10 -10 -10 -10 -10 -11 -11 -11 -12 -11 -11 -11 -11 -11 -11 -11 -11 -11 -12 -12 -12 -12 -12 -12 -12 -11 -11 -11 -11 -10 -10 -10 -10 -10 -10 -10 -9 -9 -9 -9 -9 -9 -8 -8 -8 -9 -9 -9 -9 -9 -9 -8 -8 -8 -7 -7 -6 -6 -5
-10 -10 -10 -10 -10 -10 -10 -10 -10 -10 -10 -10 -10 -10 -10 -11 -11 -11 -11 -11 -11 -11 -11 -11 -11 -11 -11 -12 -12 -12 -12 -12 -12 -12 -12 -11 -11 -11 -11 -11 -10 -10 -10 -10 -10 -10 -9 -9 -9 -9 -9 -9 -9 -9 -9 -9 -9 -9 -9 -9 -8 -8 -8 -7 -7 -6 -6 -6 -6
-10 -10 -10 -10 -10 -10 -10 -10 -10 -10 -10 -10 -10 -10 -10 -11 -11 -11 -11 -11 -11 -11 -11 -11 -11 -11 -11 -12 -12 -12 -12 -12 -12 -12 -11 -11 -11 -11 -11 -11 -11 -11 -10 -10 -10 -10 -10 -10 -9 -9 -9 -9 -8 -9 -9 -9 -9 -9 -9 -9 -8 -8 -8 -7 -7 -7 -6 -6 -6
-10 -10 -10 -10 -10 -10 -10 -10 -10 -10 -10 -10 -10 -10 -10 -11 -11 -11 -11 -11 -11 -11 -11 -11 -11 -11 -11 -12 -12 -12 -12 -12 -12 -11 -11 -11 -11 -11 -11 -11 -11 -11 -11 -10 -10 -10 -10 -10 -9 -9 -9 -8 -8 -8 -8 -8 -9 -9 -9 -8 -8 -8 -7 -7 -7 -7 -7 -7 -7
-10 -10 -10 -10 -10 -10 -10 -10 -10 -10 -10 -10 -10 -10 -10 -11 -11 -11 -11 -11 -11 -11 -11 -11 -11 -12 -12 -12 -12 -12 -12 -12 -12 -12 -12 -12 -11 -11 -11 -11 -11 -11 -11 -11 -10 -10 -10 -10 -10 -9 -9 -9 -8 -8 -8 -8 -9 -9 -9 -8 -8 -8 -7 -7 -7 -7 -7 -7 -7
-10 -10 -10 -10 -10 -10 -10 -10 -10 -10 -10 -10 -10 -10 -10 -11 -11 -11 -11 -11 -11 -11 -11 -11 -12 -12 -12 -12 -12 -12 -12 -12 -12 -12 -12 -12 -12 -12 -12 -12 -11 -11 -11 -11 -11 -10 -10 -10 -10 -9 -9 -9 -9 -9 -8 -8 -8 -8 -8 -8 -8 -8 -7 -7 -7 -7 -7 -7 -7
-10 -10 -10 -10 -10 -10 -10 -10 -10 -10 -10 -10 -10 -10 -11 -11 -11 -11 -11 -11 -11 -11 -11 -12 -12 -12 -12 -12 -12 -12 -12 -12 -12 -12 -12 -12 -12 -12 -12 -12 -12 -11 -11 -11 -11 -10 -10 -10 -10 -9 -9 -9 -9 -9 -8 -8 -8 -8 -8 -8 -8 -8 -7 -7 -7 -7 -7 -7 -7
-10 -10 -10 -10 -10 -10 -10 -10 -10 -10 -10 -10 -10 -11 -11 -11 -11 -11 -11 -11 -11 -11 -12 -12 -12 -12 -12 -12 -12 -12 -12 -12 -12 -12 -12 -12 -12 -12 -12 -12 -12 -12 -11 -11 -11 -11 -10 -10 -10 -9 -9 -9 -9 -9 -8 -8 -8 -8 -8 -8 -8 -8 -7 -7 -7 -7 -7 -7 -7
-10 -10 -10 -10 -10 -10 -10 -10 -10 -10 -10 -10 -11 -11 -11 -11 -11 -11 -11 -12 -12 -12 -12 -12 -12 -13 -13 -13 -12 -12 -12 -12 -12 -12 -12 -12 -12 -12 -12 -12 -12 -12 -12 -11 -11 -11 -10 -10 -9 -9 -8 -8 -8 -8 -8 -8 -8 -8 -8 -8 -8 -8 -7 -7 -7 -7 -7 -7 -7
-10 -10 -10 -10 -10 -10 -11 -11 -10 -10 -11 -11 -11 -11 -11 -11 -11 -11 -11 -12 -12 -12 -12 -12 -12 -13 -13 -12 -12 -12 -12 -12 -12 -12 -12 -12 -12 -12 -12 -12 -12 -12 -11 -11 -11 -11 -10 -10 -9 -8 -8 -8 -8 -8 -8 -8 -8 -8 -8 -8 -8 -8 -7 -7 -7 -7 -7 -7 -7
-10 -10 -10 -10 -11 -11 -11 -11 -11 -11 -11 -11 -11 -11 -11 -11 -11 -11 -12 -12 -12 -12 -12 -12 -13 -13 -13 -13 -12 -12 -12 -12 -12 -12 -12 -12 -12 -12 -12 -12 -12 -12 -11 -11 -11 -11 -10 -9 -9 -8 -8 -8 -8 -8 -8 -8 -8 -8 -8 -8 -8 -7 -7 -7 -7 -7 -7 -7 -7
-10 -10 -10 -10 -11 -11 -11 -11 -11 -11 -11 -11 -11 -11 -11 -11 -11 -12 -12 -12 -12 -13 -13 -13 -13 -13 -13 -13 -12 -12 -12 -12 -12 -12 -12 -12 -12 -12 -12 -12 -12 -11 -11 -11 -11 -10 -9 -9 -8 -8 -8 -8 -8 -8 -8 -8 -8 -8 -8 -8 -7 -7 -7 -7 -7 -7 -7 -7 -7
-10 -10 -11 -11 -11 -11 -11 -11 -11 -11 -11 -11 -11 -11 -12 -12 -12 -12 -12 -13 -13 -13 -13 -13 -13 -12 -12 -12 -12 -12 -12 -12 -12 -12 -12 -12 -12 -12 -12 -12 -12 -11 -11 -11 -10 -10 -9 -8 -8 -8 -8 -8 -8 -8 -8 -8 -8 -8 -8 -7 -7 -7 -7 -7 -7 -7 -7 -7 -7
-10 -10 -11 -11 -11 -11 -11 -11 -11 -11 -11 -11 -12 -12 -12 -12 -12 -12 -12 -13 -13 -13 -13 -13 -13 -13 -12 -12 -12 -12 -12 -12 -12 -12 -12 -12 -12 -12 -12 -12 -12 -12 -11 -11 -10 -9 -8 -8 -8 -8 -8 -8 -7 -7 -7 -7 -8 -7 -7 -7 -7 -7 -7 -7 -7 -7 -7 -7 -7
-10 -11 -11 -11 -11 -11 -11 -11 -12 -12 -12 -12 -12 -12 -12 -12 -12 -12 -12 -13 -13 -13 -13 -13 -13 -13 -13 -12 -12 -12 -12 -12 -12 -12 -12 -12 -12 -12 -12 -12 -12 -12 -11 -11 -10 -9 -8 -8 -8 -8 -8 -8 -7 -7 -7 -7 -7 -7 -7 -7 -7 -7 -7 -7 -7 -7 -7 -7 -7
-11 -11 -11 -11 -11 -11 -11 -12 -12 -12 -12 -12 -12 -12 -12 -12 -12 -12 -12 -13 -13 -13 -13 -13 -13 -13 -13 -13 -12 -12 -12 -12 -12 -12 -12 -12 -12 -12 -12 -12 -12 -12 -11 -11 -10 -9 -8 -8 -8 -9 -8 -7 -7 -7 -7 -7 -7 -7 -7 -7 -7 -7 -7 -7 -7 -7 -7 -7 -7
-11 -11 -11 -11 -11 -11 -11 -12 -12 -12 -12 -12 -12 -12 -12 -12 -12 -13 -13 -13 -13 -13 -13 -13 -13 -13 -13 -13 -13 -12 -13 -13 -13 -13 -12 -12 -12 -12 -12 -12 -12 -11 -11 -11 -10 -9 -9 -9 -9 -9 -8 -7 -7 -7 -7 -7 -7 -7 -7 -7 -7 -7 -7 -7 -7 -7 -7 -7 -7
-11 -11 -11 -11 -11 -11 -12 -12 -12 -12 -12 -12 -12 -12 -12 -13 -13 -13 -13 -13 -13 -13 -14 -14 -13 -13 -13 -13 -13 -13 -13 -13 -13 -13 -13 -13 -12 -12 -12 -12 -12 -11 -11 -11 -10 -9 -9 -9 -9 -9 -8 -7 -7 -7 -7 -7 -7 -7 -7 -7 -7 -7 -7 -7 -7 -7 -7 -7 -7
-11 -11 -11 -11 -11 -12 -12 -12 -12 -12 -12 -12 -12 -13 -13 -13 -13 -14 -14 -14 -14 -14 -14 -14 -14 -14 -14 -13 -13 -13 -13 -13 -13 -13 -13 -13 -12 -12 -12 -12 -12 -11 -11 -11 -10 -10 -9 -9 -9 -9 -8 -7 -7 -7 -7 -7 -7 -7 -7 -7 -7 -7 -7 -7 -7 -7 -7 -7 -7
-11 -11 -11 -11 -12 -12 -12 -12 -12 -12 -12 -13 -13 -13 -14 -14 -14 -14 -14 -14 -14 -14 -14 -14 -14 -14 -14 -14 -14 -13 -13 -13 -13 -13 -13 -13 -12 -12 -12 -12 -12 -12 -11 -11 -10 -10 -10 -10 -9 -8 -8 -8 -8 -8 -8 -8 -8 -7 -7 -7 -7 -8 -8 -7 -7 -7 -7 -7 -7
-11 -11 -11 -12 -12 -12 -12 -12 -12 -13 -13 -13 -14 -14 -14 -14 -14 -14 -14 -14 -14 -14 -14 -14 -14 -14 -14 -14 -14 -13 -13 -13 -13 -13 -13 -13 -13 -12 -12 -12 -12 -12 -11 -11 -10 -10 -10 -10 -9 -8 -8 -8 -8 -8 -8 -8 -8 -8 -8 -8 -8 -8 -8 -7 -7 -7 -7 -7 -7
-11 -11 -12 -12 -12 -12 -12 -12 -13 -13 -13 -14 -14 -14 -14 -14 -14 -14 -15 -15 -15 -15 -15 -15 -15 -14 -14 -14 -14 -13 -13 -13 -13 -13 -13 -13 -13 -13 -13 -12 -12 -12 -11 -11 -10 -10 -10 -10 -9 -8 -8 -8 -8 -8 -8 -8 -8 -8 -8 -8 -8 -8 -8 -7 -7 -7 -7 -7 -7
-11 -12 -12 -12 -12 -12 -13 -13 -13 -14 -14 -14 -14 -14 -15 -15 -15 -15 -15 -15 -15 -15 -15 -15 -15 -15 -14 -14 -14 -14 -14 -14 -14 -14 -14 -13 -13 -13 -13 -13 -12 -12 -11 -11 -11 -11 -10 -10 -9 -9 -8 -8 -8 -8 -8 -8 -8 -8 -8 -8 -8 -8 -8 -7 -7 -7 -7 -7 -6
-12 -12 -12 -13 -13 -13 -13 -14 -14 -14 -14 -15 -15 -15 -15 -15 -15 -15 -15 -15 -15 -15 -15 -15 -15 -15 -14 -14 -14 -14 -14 -14 -14 -14 -14 -14 -14 -13 -13 -13 -13 -12 -12 -11 -11 -11 -10 -10 -9 -9 -8 -8 -8 -8 -8 -8 -8 -8 -8 -8 -8 -8 -8 -7 -7 -7 -7 -6 -6
-12 -13 -13 -13 -13 -14 -14 -14 -14 -14 -15 -15 -15 -15 -15 -15 -15 -15 -15 -15 -15 -15 -15 -15 -15 -15 -15 -15 -15 -15 -14 -14 -14 -14 -14 -14 -14 -14 -13 -13 -13 -12 -12 -11 -11 -11 -10 -10 -9 -9 -8 -8 -8 -8 -8 -8 -8 -8 -8 -8 -8 -8 -8 -7 -7 -7 -6 -6 -6
-13 -13 -13 -14 -14 -14 -14 -14 -15 -15 -15 -15 -15 -15 -15 -15 -15 -15 -15 -15 -15 -15 -15 -15 -15 -15 -15 -15 -15 -15 -15 -15 -14 -14 -14 -14 -14 -14 -13 -13 -13 -12 -12 -12 -11 -11 -10 -10 -9 -9 -8 -8 -9 -8 -8 -8 -8 -8 -8 -8 -8 -8 -8 -7 -7 -7 -6 -6 -6
-13 -14 -14 -14 -14 -14 -15 -15 -15 -15 -15 -15 -15 -15 -15 -15 -15 -15 -15 -15 -15 -15 -15 -15 -15 -15 -15 -15 -15 -15 -15 -15 -15 -14 -14 -14 -14 -14 -13 -13 -13 -13 -12 -12 -11 -11 -10 -10 -9 -9 -8 -8 -9 -9 -8 -8 -8 -8 -8 -8 -8 -8 -8 -8 -7 -7 -7 -7 -7
-14 -14 -14 -14 -14 -14 -15 -15 -15 -15 -15 -15 -15 -15 -15 -15 -15 -15 -15 -15 -15 -15 -15 -15 -15 -15 -15 -15 -15 -15 -15 -15 -15 -14 -14 -14 -14 -14 -13 -13 -13 -13 -12 -12 -11 -11 -10 -10 -9 -9 -9 -9 -9 -9 -8 -8 -8 -8 -9 -8 -8 -8 -8 -8 -8 -7 -7 -7 -7
-14 -14 -14 -14 -14 -15 -15 -15 -15 -15 -15 -15 -15 -15 -15 -15 -15 -15 -15 -15 -15 -15 -15 -15 -15 -15 -15 -15 -15 -15 -14 -14 -14 -14 -14 -14 -14 -14 -13 -13 -13 -13 -12 -12 -11 -11 -10 -10 -9 -9 -9 -9 -9 -9 -9 -8 -9 -9 -9 -8 -8 -8 -8 -8 -7 -7 -7 -8 -8
-14 -14 -14 -14 -14 -15 -15 -15 -15 -15 -15 -15 -15 -15 -15 -15 -15 -15 -15 -15 -15 -15 -15 -15 -15 -15 -15 -15 -14 -14 -14 -14 -14 -14 -14 -14 -14 -13 -13 -13 -13 -13 -12 -12 -11 -11 -10 -10 -9 -9 -9 -9 -9 -9 -9 -8 -9 -9 -9 -8 -8 -8 -8 -8 -7 -7 -8 -8 -8
-14 -14 -14 -14 -14 -15 -15 -15 -15 -15 -15 -15 -15 -15 -15 -15 -15 -15 -15 -15 -15 -15 -15 -15 -15 -15 -15 -14 -14 -14 -14 -14 -14 -14 -14 -14 -14 -13 -13 -13 -13 -13 -12 -12 -11 -11 -10 -10 -9 -9 -9 -9 -9 -9 -9 -8 -9 -9 -9 -8 -8 -8 -8 -8 -8 -8 -8 -8 -8
-14 -14 -14 -14 -14 -14 -15 -15 -15 -15 -14 -14 -15 -15 -15 -15 -15 -15 -15 -15 -14 -14 -15 -15 -15 -15 -14 -14 -14 -14 -14 -14 -14 -14 -14 -13 -13 -13 -13 -13 -13 -13 -12 -12 -11 -11 -10 -10 -9 -9 -9 -9 -9 -9 -9 -9 -9 -9 -8 -8 -8 -8 -8 -8 -8 -8 -8 -8 -8
-14 -14 -14 -14 -14 -14 -14 -14 -14 -14 -14 -15 -15 -15 -15 -15 -15 -15 -14 -14 -14 -14 -14 -14 -14 -14 -14 -14 -14 -14 -14 -14 -14 -14 -13 -13 -13 -13 -13 -13 -12 -12 -12 -12 -11 -11 -10 -10 -9 -9 -9 -9 -9 -9 -9 -9 -9 -9 -8 -8 -8 -8 -8 -8 -8 -8 -8 -8 -8
-14 -14 -14 -14 -14 -14 -14 -14 -14 -14 -15 -15 -15 -15 -15 -15 -14 -14 -14 -14 -14 -14 -14 -14 -14 -14 -14 -14 -14 -14 -14 -14 -14 -13 -13 -13 -13 -13 -13 -13 -12 -12 -12 -12 -11 -11 -10 -10 -9 -9 -9 -9 -9 -9 -9 -9 -9 -9 -9 -8 -8 -8 -8 -8 -8 -8 -8 -8 -9
-14 -14 -14 -14 -14 -14 -14 -14 -15 -15 -15 -15 -15 -15 -14 -14 -14 -14 -14 -14 -14 -14 -14 -14 -14 -14 -14 -14 -14 -14 -14 -13 -13 -13 -13 -13 -13 -13 -13 -12 -12 -12 -12 -12 -11 -11 -10 -10 -9 -9 -10 -10 -9 -9 -9 -10 -10 -9 -9 -9 -9 -9 -9 -9 -9 -8 -8 -8 -8
-14 -14 -14 -14 -14 -14 -14 -15 -15 -15 -15 -15 -15 -14 -14 -14 -14 -14 -14 -14 -14 -14 -14 -14 -14 -13 -13 -13 -14 -14 -13 -13 -13 -13 -13 -13 -13 -13 -13 -12 -12 -12 -12 -12 -11 -11 -10 -10 -10 -10 -10 -10 -10 -10 -10 -10 -10 -10 -10 -9 -9 -9 -9 -9 -9 -9 -9 -8 -8
-14 -14 -14 -14 -14 -14 -14 -15 -15 -15 -15 -15 -14 -14 -14 -14 -14 -14 -14 -14 -14 -14 -14 -13 -13 -13 -13 -13 -13 -13 -13 -13 -13 -13 -13 -13 -13 -13 -12 -12 -12 -12 -12 -12 -12 -11 -10 -10 -10 -10 -10 -10 -10 -10 -10 -10 -10 -10 -10 -10 -10 -10 -10 -10 -10 -9 -9 -9 -9
-14 -14 -15 -15 -14 -14 -15 -15 -15 -15 -14 -14 -14 -14 -14 -14 -14 -14 -14 -14 -14 -14 -14 -13 -13 -13 -13 -13 -13 -13 -13 -13 -13 -13 -12 -13 -13 -13 -12 -12 -12 -12 -12 -12 -11 -11 -10 -10 -10 -10 -10 -10 -10 -10 -10 -10 -10 -10 -10 -10 -10 -10 -10 -10 -10 -10 -10 -10 -10
-14 -15 -15 -14 -14 -14 -14 -14 -14 -14 -14 -14 -14 -14 -14 -14 -14 -14 -14 -14 -14 -14 -14 -13 -13 -13 -13 -13 -13 -13 -13 -13 -13 -12 -12 -12 -12 -12 -12 -12 -12 -12 -12 -12 -11 -11 -10 -10 -10 -10 -10 -11 -11 -11 -11 -11 -11 -11 -11 -11 -11 -11 -10 -10 -10 -10 -10 -10 -10
Height
1541 1539 1538 1536 1535 1533 1531 1530 1528 1527 1525 1523 1522 1520 1518 1517 1515 1514 1512 1511 1510 1508 1506 1505 1503 1502 1500 1499 1497 1496 1495 1493 1492 1490 1488 1487 1485 1483 1482 1481 1479 1478 1477 1476 1475 1473 1472 1472 1471 1469 1468 1467 1466 1465 1464 1463 1462 1462 1461 1460 1459 1458 1458 1457 1456 1455 1454 1453 1452
1540 1539 1537 1536 1534 1532 1531 1529 1527 1526 1525 1523 1521 1520 1518 1516 1515 1513 1512 1511 1509 1507 1506 1504 1502 1501 1499 1498 1497 1495 1494 1492 1490 1488 1487 1485 1484 1482 1481 1479 1478 1477 1476 1474 1473 1472 1472 1470 1469 1468 1467 1466 1465 1464 1463 1462 1461 1460 1459 1459 1458 1457 1457 1456 1454 1453 1452 1451 1450
1540 1538 1537 1535 1533 1532 1530 1528 1527 1525 1524 1522 1521 1519 1517 1516 1514 1513 1511 1510 1508 1507 1505 1503 1502 1500 1498 1497 1496 1494 1493 1491 1489 1487 1486 1484 1482 1481 1480 1478 1477 1476 1475 1474 1472 1472 1471 1469 1468 1467 1466 1465 1463 1462 1461 1460 1460 1459 1458 1457 1457 1456 1455 1453 1452 1451 1450 1450 1449
1539 1537 1536 1534 1533 1531 1530 1528 1527 1525 1523 1522 1520 1518 1517 1515 1514 1512 1511 1509 1508 1506 1505 1503 1501 1499 1498 1496 1495 1493 1492 1490 1488 1487 1484 1483 1481 1480 1478 1477 1476 1475 1473 1472 1472 1471 1470 1468 1467 1466 1465 1463 1462 1461 1460 1459 1459 1458 1457 1456 1455 1454 1453 1452 1451 1450 1449 1448 1447
1538 1537 1535 1534 1532 1531 1529 1528 1526 1524 1523 1521 1519 1518 1516 1515 1513 1512 1510 1508 1507 1505 1504 1502 1500 1499 1497 1495 1494 1492 1490 1489 1487 1485 1483 1482 1480 1479 1477 1476 1475 1474 1472 1472 1471 1470 1468 1467 1466 1465 1463 1462 1461 1460 1459 1458 1458 1457 1456 1455 1453 1452 1451 1450 1449 1449 1448 1447 1446
1537 1536 1535 1533 1532 1530 1529 1527 1526 1524 1522 1521 1519 1517 1516 1514 1513 1511 1510 1508 1506 1505 1503 1502 1500 1498 1496 1494 1492 1491 1489 1487 1486 1484 1482 1481 1479 1477 1476 1475 1474 1473 1472 1471 1469 1468 1467 1466 1465 1463 1462 1461 1460 1459 1458 1458 1457 1456 1454 1453 1452 1451 1450 1449 1448 1447 1447 1446 1445
1537 1536 1534 1533 1531 1530 1528 1527 1525 1524 1522 1520 1518 1517 1515 1514 1512 1511 1509 1507 1506 1504 1502 1501 1499 1497 1495 1493 1492 1490 1488 1487 1485 1483 1482 1480 1478 1477 1476 1474 1473 1472 1471 1470 1468 1467 1466 1465 1463 1462 1461 1460 1459 1457 1457 1457 1456 1454 1453 1452 1450 1449 1448 1448 1447 1446 1445 1445 1444
1537 1535 1534 1532 1531 1529 1528 1526 1525 1523 1521 1520 1518 1517 1515 1513 1512 1510 1508 1507 1505 1503 1502 1500 1498 1496 1495 1493 1491 1489 1487 1486 1484 1482 1481 1479 1477 1476 1475 1473 1472 1471 1470 1469 1467 1466 1465 1463 1462 1461 1459 1458 1457 1457 1455 1455 1454 1453 1452 1450 1449 1448 1447 1447 1446 1445 1444 1443 1443
1536 1535 1533 1532 1530 1529 1527 1526 1524 1522 1521 1519 1517 1516 1514 1513 1511 1509 1507 1506 1504 1502 1501 1499 1497 1496 1494 1492 1491 1489 1487 1485 1483 1482 1480 1478 1477 1475 1474 1472 1471 1470 1469 1468 1467 1465 1463 1462 1461 1460 1459 1457 1457 1455 1454 1453 1452 1451 1450 1449 1447 1447 1446 1445 1445 1444 1443 1442 1442
1535 1534 1532 1531 1529 1528 1527 1525 1523 1522 1520 1518 1517 1515 1514 1512 1511 1509 1507 1505 1503 1502 1500 1498 1497 1495 1493 1492 1490 1488 1486 1484 1483 1481 1479 1478 1476 1475 1473 1472 1471 1469 1468 1467 1466 1464 1462 1461 1460 1459 1458 1457 1455 1454 1453 1452 1451 1450 1448 1447 1446 1445 1444 1444 1443 1442 1442 1441 1440
1535 1533 1532 1530 1529 1527 1526 1524 1522 1521 1519 1518 1516 1515 1513 1512 1510 1508 1506 1505 1503 1501 1499 1498 1496 1494 1493 1491 1489 1487 1486 1484 1482 1481 1479 1477 1476 1474 1473 1472 1470 1469 1467 1466 1465 1463 1462 1461 1459 1457 1456 1455 1454 1453 1452 1451 1449 1448 1447 1446 1445 1444 1443 1442 1442 1441 1441 1440 1439
1534 1533 1531 1530 1528 1527 1525 1523 1522 1520 1518 1517 1515 1514 1512 1511 1509 1507 1505 1503 1502 1500 1498 1497 1496 1494 1492 1490 1488 1487 1485 1483 1482 1480 1478 1477 1475 1474 1472 1471 1470 1468 1467 1465 1464 1463 1461 1460 1458 1457 1455 1454 1453 1452 1450 1448 1447 1446 1445 1443 1443 1442 1442 1441 1440 1440 1439 1439 1437
1534 1532 1531 1529 1527 1526 1524 1522 1521 1519 1518 1516 1515 1513 1511 1510 1508 1506 1504 1502 1501 1499 1498 1497 1495 1494 1492 1490 1488 1486 1484 1483 1481 1480 1478 1476 1475 1473 1472 1471 1469 1467 1466 1465 1463 1462 1461 1459 1458 1456 1454 1452 1451 1449 1448 1447 1445 1444 1443 1442 1442 1441 1441 1440 1439 1439 1438 1437 1436
1533 1532 1530 1528 1527 1525 1523 1522 1520 1518 1517 1515 1514 1512 1510 1509 1507 1505 1504 1502 1500 1499 1497 1496 1494 1493 1491 1489 1487 1486 1484 1482 1481 1479 1477 1476 1474 1473 1472 1470 1468 1467 1465 1464 1463 1462 1460 1458 1457 1456 1453 1451 1448 1447 1445 1444 1443 1442 1442 1441 1440 1440 1439 1438 1438 1438 1437 1436 1435
1533 1531 1529 1528 1526 1525 1523 1521 1519 1518 1516 1515 1513 1511 1510 1508 1506 1505 1503 1501 1500 1498 1497 1495 1494 1492 1491 1489 1487 1485 1483 1482 1480 1478 1477 1475 1474 1472 1471 1469 1468 1466 1465 1463 1462 1460 1459 1458 1457 1455 1452 1449 1446 1444 1443 1442 1442 1441 1440 1440 1440 1439 1438 1438 1438 1437 1436 1435 1434
1532 1530 1529 1527 1526 1524 1522 1521 1519 1517 1515 1514 1512 1511 1509 1507 1506 1504 1502 1501 1499 1498 1496 1495 1493 1491 1490 1488 1487 1485 1482 1481 1479 1478 1476 1475 1473 1472 1470 1469 1467 1465 1464 1462 1461 1459 1458 1457 1456 1453 1450 1447 1445 1443 1442 1441 1440 1440 1439 1439 1439 1438 1438 1437 1437 1436 1435 1434 1433
1531 1529 1528 1526 1525 1523 1522 1520 1518 1516 1515 1513 1511 1510 1508 1507 1505 1503 1502 1501 1499 1497 1495 1494 1492 1491 1489 1487 1486 1484 1482 1480 1478 1477 1476 1474 1473 1471 1470 1468 1467 1465 1463 1462 1460 1458 1457 1456 1454 1451 1448 1446 1444 1442 1441 1440 1440 1439 1439 1439 1439 1438 1437 1437 1436 1435 1434 1433 1432
1530 1528 1527 1525 1524 1522 1521 1519 1517 1516 1514 1512 1511 1509 1507 1506 1504 1502 1501 1500 1498 1496 1494 1493 1491 1490 1488 1487 1485 1483 1482 1480 1478 1477 1475 1474 1472 1471 1469 1468 1466 1465 1463 1461 1460 1458 1457 1455 1452 1449 1446 1444 1443 1442 1441 1440 1439 1439 1439 1439 1438 1437 1437 1436 1435 1434 1433 1432 1431
1529 1527 1526 1524 1523 1521 1520 1518 1516 1515 1513 1511 1510 1508 1507 1505 1503 1502 1500 1498 1497 1496 1494 1492 1490 1489 1487 1486 1484 1483 1481 1479 1477 1476 1475 1473 1472 1470 1469 1467 1466 1464 1462 1461 1459 1458 1456 1454 1450 1447 1446 1444 1443 1442 1442 1441 1440 1439 1439 1438 1437 1437 1436 1436 1435 1434 1433 1432 1431
1528 1527 1525 1523 1522 1520 1518 1517 1515 1514 1512 1510 1508 1507 1505 1504 1502 1500 1499 1497 1496 1494 1493 1491 1489 1488 1486 1485 1483 1482 1481 1479 1477 1476 1474 1473 1471 1470 1468 1467 1465 1463 1462 1461 1459 1457 1455 1452 1449 1447 1446 1445 1444 1443 1442 1441 1440 1439 1438 1438 1437 1437 1436 1435 1434 1433 1432 1431 1430
1527 1526 1524 1523 1521 1519 1518 1516 1514 1512 1511 1509 1507 1506 1504 1502 1501 1499 1497 1496 1495 1493 1492 1490 1488 1487 1485 1484 1482 1481 1480 1478 1477 1475 1474 1472 1471 1469 1468 1466 1465 1463 1461 1460 1458 1456 1454 1451 1449 1448 1447 1446 1444 1442 1442 1441 1440 1439 1438 1437 1437 1436 1436 1435 1434 1433 1432 1431 1430
1527 1525 1524 1522 1520 1519 1517 1515 1513 1511 1509 1508 1506 1504 1503 1501 1500 1498 1497 1495 1494 1492 1491 1489 1487 1486 1484 1483 1482 1480 1479 1477 1476 1475 1473 1472 1470 1468 1467 1466 1464 1462 1461 1459 1457 1455 1452 1451 1450 1450 1449 1447 1444 1442 1441 1440 1439 1438 1437 1437 1436 1436 1435 1434 1433 1432 1431 1430 1429
1526 1525 1523 1521 1520 1518 1516 1514 1512 1510 1508 1507 1505 1503 1502 1500 1499 1497 1496 1494 1493 1491 1489 1488 1486 1485 1483 1482 1481 1480 1478 1477 1475 1474 1472 1471 1469 1467 1466 1465 1463 1462 1460 1458 1456 1454 1452 1451 1450 1451 1450 1447 1444 1442 1441 1440 1439 1438 1437 1437 1436 1435 1434 1434 1433 1432 1431 1430 1429
1526 1524 1522 1521 1519 1517 1515 1513 1511 1509 1507 1506 1504 1503 1502 1500 1498 1497 1495 1493 1492 1490 1488 1487 1485 1484 1482 1481 1480 1479 1478 1476 1474 1472 1471 1470 1468 1467 1465 1464 1462 1461 1459 1458 1456 1454 1453 1452 1451 1451 1449 1446 1443 1441 1440 1439 1439 1438 1437 1437 1436 1435 1434 1433 1432 1431 1430 1429 1428
1525 1523 1521 1520 1518 1516 1514 1512 1510 1509 1507 1506 1504 1503 1501 1499 1498 1496 1494 1492 1491 1489 1487 1486 1484 1483 1482 1480 1479 1478 1477 1475 1474 1472 1470 1468 1467 1466 1464 1463 1462 1460 1459 1457 1456 1455 1454 1453 1452 1450 1448 1446 1443 1441 1440 1439 1438 1438 1437 1437 1435 1434 1433 1432 1431 1430 1430 1429 1427
1524 1522 1521 1519 1517 1515 1513 1512 1510 1508 1507 1506 1504 1502 1501 1499 1497 1496 1494 1492 1490 1489 1487 1485 1483 1482 1481 1480 1478 1477 1476 1474 1473 1471 1470 1468 1466 1465 1463 1462 1461 1460 1458 1457 1456 1455 1454 1453 1452 1450 1448 1445 1442 1440 1439 1439 1438 1437 1437 1436 1435 1434 1433 1432 1431 1430 1429 1428 1427
1523 1521 1520 1518 1516 1514 1512 1511 1510 1508 1507 1505 1504 1502 1500 1499 1497 1495 1493 1492 1490 1488 1487 1485 1483 1482 1480 1479 1477 1476 1474 1473 1472 1471 1469 1467 1466 1464 1463 1462 1461 1459 1458 1457 1456 1455 1454 1452 1451 1449 1447 1445 1442 1440 1439 1438 1438 1437 1436 1435 1434 1433 1432 1431 1430 1429 1428 1428 1427
1522 1521 1519 1517 1515 1514 1512 1511 1510 1508 1507 1505 1503 1502 1500 1498 1497 1495 1493 1492 1490 1488 1486 1484 1483 1482 1480 1478 1476 1475 1473 1472 1471 1469 1468 1467 1465 1464 1462 1461 1460 1459 1458 1457 1456 1455 1454 1452 1451 1449 1447 1445 1442 1440 1439 1438 1438 1437 1436 1435 1434 1433 1432 1431 1430 1429 1428 1427 1427
1522 1520 1518 1517 1515 1514 1512 1511 1510 1508 1507 1505 1503 1502 1500 1498 1497 1495 1493 1491 1489 1487 1486 1484 1483 1481 1479 1477 1476 1474 1473 1471 1470 1469 1467 1466 1464 1463 1462 1461 1460 1459 1458 1457 1456 1455 1454 1452 1450 1449 1447 1445 1443 1441 1439 1438 1438 1437 1436 1435 1434 1433 1432 1430 1430 1429 1428 1427 1427
1522 1520 1518 1517 1515 1514 1512 1511 1509 1508 1506 1505 1503 1501 1500 1498 1496 1494 1493 1491 1489 1487 1486 1484 1483 1481 1479 1477 1475 1474 1472 1471 1469 1468 1467 1465 1464 1462 1461 1460 1459 1458 1457 1457 1456 1455 1454 1452 1450 1449 1447 1446 1443 1441 1440 1438 1438 1437 1436 1435 1434 1432 1431 1430 1430 1429 1429 1428 1427
1522 1520 1518 1517 1515 1513 1512 1510 1509 1507 1506 1504 1503 1501 1499 1498 1496 1494 1492 1491 1489 1487 1486 1484 1482 1481 1479 1477 1475 1474 1472 1471 1469 1467 1466 1465 1463 1462 1461 1460 1459 1458 1457 1457 1456 1455 1454 1452 1451 1449 1447 1446 1444 1442 1440 1439 1438 1437 1436 1435 1433 1432 1431 1431 1430 1430 1429 1428 1427
1521 1519 1518 1516 1514 1513 1512 1510 1508 1507 1506 1504 1502 1501 1499 1497 1496 1494 1492 1491 1489 1487 1486 1484 1482 1480 1478 1477 1475 1473 1472 1470 1469 1467 1466 1465 1463 1462 1461 1460 1459 1458 1457 1457 1456 1455 1454 1452 1451 1449 1447 1446 1444 1442 1441 1439 1438 1437 1436 1435 1433 1432 1431 1430 1430 1430 1429 1428 1427
1520 1519 1517 1515 1514 1512 1511 1510 1508 1507 1505 1504 1502 1501 1499 1497 1496 1494 1492 1491 1489 1487 1486 1484 1482 1480 1478 1477 1475 1473 1472 1470 1469 1467 1466 1465 1463 1462 1460 1459 1458 1457 1457 1457 1456 1455 1454 1452 1451 1449 1448 1446 1444 1442 1441 1439 1438 1437 1436 1435 1433 1432 1431 1430 1431 1430 1429 1428 1428
1520 1518 1516 1515 1513 1512 1511 1509 1508 1507 1505 1503 1502 1500 1499 1497 1496 1494 1492 1491 1489 1488 1486 1484 1482 1481 1479 1477 1475 1474 1472 1471 1469 1467 1466 1464 1463 1462 1460 1459 1458 1458 1457 1457 1456 1455 1454 1452 1452 1450 1448 1446 1444 1442 1441 1439 1438 1437 1436 1435 1433 1432 1431 1430 1431 1431 1430 1429 1429
1519 1517 1516 1514 1513 1512 1510 1509 1508 1506 1505 1503 1502 1500 1499 1497 1496 1494 1493 1491 1490 1488 1486 1484 1482 1481 1479 1477 1476 1474 1472 1471 1469 1468 1466 1465 1463 1462 1461 1459 1458 1458 1457 1457 1455 1454 1453 1453 1452 1450 1448 1446 1444 1442 1441 1439 1438 1437 1436 1435 1433 1432 1431 1430 1432 1432 1431 1430 1429
1519 1517 1516 1514 1513 1512 1510 1509 1507 1506 1505 1503 1502 1500 1498 1497 1496 1495 1493 1492 1490 1488 1486 1484 1482 1481 1479 1477 1475 1474 1472 1471 1470 1468 1467 1465 1463 1462 1461 1460 1459 1458 1457 1456 1455 1454 1453 1452 1452 1450 1447 1445 1444 1442 1441 1440 1439 1438 1437 1435 1434 1432 1431 1430 1431 1432 1432 1432 1430
1519 1517 1516 1515 1513 1512 1510 1509 1508 1506 1505 1503 1502 1500 1499 1497 1496 1495 1493 1492 1490 1488 1486 1484 1482 1481 1479 1477 1476 1474 1473 1472 1470 1469 1467 1465 1464 1462 1461 1460 1459 1458 1457 1456 1455 1453 1453 1452 1451 1449 1447 1445 1444 1443 1442 1441 1439 1438 1437 1436 1435 1434 1432 1430 1430 1431 1432 1432 1431
1519 1517 1516 1515 1513 1512 1511 1509 1508 1507 1505 1503 1502 1501 1499 1498 1497 1495 1494 1492 1490 1488 1486 1484 1482 1481 1479 1477 1476 1474 1473 1472 1471 1469 1467 1466 1464 1463 1462 1461 1460 1458 1457 1456 1454 1453 1453 1453 1451 1450 1448 1446 1445 1443 1442 1441 1440 1439 1438 1437 1436 1435 1433 1432 1431 1430 1430 1431 1431
1519 1518 1517 1515 1514 1512 1511 1510 1508 1507 1505 1504 1502 1501 1500 1498 1497 1496 1494 1493 1491 1489 1487 1485 1483 1481 1479 1478 1476 1475 1473 1472 1471 1470 1468 1466 1465 1463 1462 1462 1460 1459 1457 1456 1454 1454 1453 1452 1451 1450 1448 1446 1445 1444 1443 1442 1441 1440 1439 1438 1437 1436 1435 1434 1433 1432 1431 1431 1431
1520 1518 1517 1516 1515 1513 1512 1510 1508 1507 1506 1504 1503 1501 1500 1499 1497 1496 1495 1493 1491 1489 1487 1485 1483 1482 1480 1478 1477 1475 1473 1472 1471 1470 1468 1467 1465 1464 1463 1462 1461 1459 1458 1456 1455 1454 1454 1452 1452 1450 1448 1446 1445 1444 1443 1442 1442 1441 1440 1439 1438 1437 1437 1436 1435 1434 1433 1432 1432
1520 1519 1517 1516 1515 1513 1512 1510 1509 1507 1506 1505 1503 1502 1501 1499 1498 1496 1494 1493 1491 1489 1487 1485 1483 1482 1480 1479 1477 1476 1474 1472 1471 1470 1469 1467 1466 1465 1464 1463 1462 1460 1458 1457 1455 1455 1454 1453 1452 1451 1449 1447 1446 1445 1444 1443 1442 1442 1441 1441 1440 1439 1438 1437 1436 1435 1434 1433 1432
Wind_Speed
27 27 26 26 26 26 26 26 26 26 26 26 26 25 25 25 25 25 25 26 26 27 28 29 28 28 28 28 28 29 30 31 32 32 32 32 31 30 29 28 27 26 25 24 23 23 22 22 23 23 24 24 24 24 23 22 22 21 22 22 24 25 26 27 28 28 26 23 21
27 27 26 26 26 26 26 26 26 26 25 25 25 25 25 25 25 25 26 26 27 27 28 28 28 28 28 28 28 29 30 31 32 33 32 32 31 30 29 28 27 26 25 24 23 22 22 22 23 24 24 24 24 23 22 21 21 22 23 24 25 25 26 27 27 26 24 22 20
27 27 26 26 26 26 26 26 26 26 25 25 25 24 24 25 25 25 26 26 27 27 27 27 27 27 28 28 29 29 30 31 32 32 32 32 31 30 29 28 27 26 25 24 23 22 22 23 23 24 25 24 24 23 22 22 22 23 25 26 26 26 26 26 26 24 23 21 20
27 26 26 26 26 26 26 26 26 26 25 25 25 25 25 25 25 25 26 26 27 27 27 27 27 27 27 28 29 30 30 31 31 32 32 31 31 30 29 28 27 26 25 24 23 23 23 23 24 25 25 25 23 22 22 22 23 25 26 27 26 26 25 25 24 22 21 20 20
27 26 26 26 26 26 25 25 25 25 25 25 25 25 25 25 25 25 26 27 27 27 26 26 26 27 28 28 29 30 31 31 31 31 31 31 30 29 28 27 27 26 25 24 24 23 23 24 25 25 25 25 23 22 22 23 24 26 27 27 26 25 24 23 22 20 20 20 22
27 26 26 26 25 25 25 25 25 25 25 25 25 25 25 25 25 26 26 27 27 26 26 26 26 27 28 29 30 30 31 31 31 30 30 30 29 29 28 27 26 26 25 25 24 24 24 25 25 26 25 24 23 22 22 23 24 26 27 27 26 24 23 21 20 19 19 21 24
26 26 26 26 26 26 25 25 26 26 25 25 25 25 25 25 26 26 26 27 27 27 27 27 27 28 29 30 30 31 31 30 30 30 29 29 29 28 28 27 26 26 25 25 25 25 25 25 26 26 25 24 23 22 22 23 24 26 27 27 25 23 21 19 18 18 20 22 25
26 26 26 26 26 26 26 26 26 26 26 26 26 26 26 26 26 26 26 27 27 27 27 27 28 29 30 30 31 31 30 30 30 29 29 29 28 28 28 27 27 26 25 25 25 25 26 26 26 26 26 25 24 24 23 23 24 26 27 27 25 22 20 18 18 18 20 23 26
26 26 26 26 26 26 26 26 26 26 26 26 26 26 26 26 26 26 27 27 27 27 27 28 29 30 30 31 31 31 30 30 30 29 29 28 28 28 28 27 27 26 26 25 25 26 26 27 27 26 26 26 26 26 25 25 25 27 27 27 24 21 19 18 18 19 22 24 26
27 27 27 27 26 26 27 27 27 27 27 27 26 26 26 26 26 26 26 27 27 27 28 28 29 30 31 31 31 31 30 29 29 29 28 28 28 28 28 28 27 27 26 26 26 26 27 27 27 26 26 27 27 27 27 27 28 29 29 28 24 20 18 18 18 20 23 25 26
27 27 27 27 27 27 27 27 27 27 27 27 27 27 27 27 26 26 26 26 27 27 28 29 30 31 32 32 31 31 30 29 28 28 28 27 28 28 28 27 27 27 26 26 26 27 27 27 26 26 26 26 28 29 30 31 31 32 31 27 22 19 18 18 19 21 23 25 25
26 26 26 27 27 27 28 28 28 28 28 28 28 28 28 27 27 27 27 27 27 28 28 29 30 31 31 32 32 31 29 28 27 27 27 27 27 28 28 27 27 26 26 26 26 26 26 26 25 25 26 27 29 32 34 35 35 33 30 25 20 17 17 18 19 21 23 24 23
26 26 26 27 27 28 28 28 29 29 29 29 29 29 29 28 28 28 28 28 28 28 29 29 30 30 31 32 31 31 29 28 27 26 26 27 27 28 28 28 27 26 26 26 25 25 25 24 23 24 26 30 34 36 37 37 35 32 27 22 17 15 15 17 19 21 22 22 22
26 26 27 27 27 28 28 29 29 29 29 29 29 30 30 30 29 29 29 29 29 29 29 29 30 30 31 31 31 31 29 28 26 25 26 26 27 28 28 28 27 26 26 26 25 24 22 22 22 25 30 35 39 40 38 35 32 28 23 18 14 13 14 16 18 20 21 21 20
26 26 27 27 28 28 29 29 30 30 30 30 30 30 30 31 30 30 29 29 29 29 29 29 30 30 30 31 31 30 29 27 26 25 25 26 27 28 28 28 27 27 26 25 24 22 21 20 23 28 35 41 42 39 35 31 26 22 17 13 11 11 13 16 17 18 19 19 19
26 27 27 28 28 29 29 29 30 30 31 31 31 31 31 31 31 30 30 29 29 29 29 29 29 30 30 30 30 30 28 27 26 25 26 26 27 28 28 28 28 27 26 25 24 21 19 20 25 34 41 43 40 34 29 25 20 15 10 8 8 10 12 14 16 16 17 17 17
27 27 28 28 29 29 29 30 30 31 31 31 31 31 31 31 31 30 30 29 29 29 29 29 29 30 30 30 30 29 28 27 26 26 26 27 28 28 29 28 28 27 26 25 24 22 20 22 30 39 45 43 36 29 23 19 14 10 7 6 7 9 12 14 15 16 16 16 17
27 28 28 29 29 30 30 31 31 32 32 32 32 31 31 31 30 30 30 29 29 30 30 30 29 29 30 30 29 29 28 28 27 27 27 27 28 28 28 28 27 26 25 25 25 23 23 26 35 43 47 42 33 25 18 14 10 7 6 6 7 10 12 15 16 16 16 16 17
28 28 29 30 30 31 31 32 32 32 32 32 32 32 31 31 30 30 30 30 29 29 30 30 30 29 29 29 29 29 29 28 28 28 27 27 27 28 28 28 27 26 25 25 25 24 25 30 39 45 47 41 30 20 14 12 10 8 7 7 9 11 14 16 17 16 16 16 17
28 29 29 30 31 31 32 32 32 33 33 33 32 32 32 32 31 31 31 31 30 29 29 30 30 30 30 30 30 29 29 29 29 28 28 27 27 27 27 27 27 25 24 25 25 25 28 33 40 45 45 38 25 16 12 12 11 10 10 10 10 12 15 17 17 16 15 15 16
28 29 30 31 31 32 32 33 33 33 33 33 34 34 34 33 33 32 32 31 30 30 29 29 29 30 30 30 30 30 30 30 29 28 28 27 26 26 27 27 26 25 24 24 25 26 29 34 40 44 42 34 21 13 11 12 13 13 13 13 12 13 15 16 16 15 13 13 15
28 29 30 31 32 33 33 33 34 34 34 34 34 35 35 35 34 34 33 32 31 30 29 29 29 29 29 30 30 30 31 30 29 28 27 26 26 26 26 26 26 25 25 25 25 27 31 35 39 41 40 32 19 12 10 11 13 15 16 15 14 13 14 15 15 13 12 11 13
30 31 32 33 33 33 34 34 34 34 34 35 35 35 35 35 35 34 34 33 32 31 30 29 29 29 29 29 29 30 30 31 30 29 27 26 25 25 25 25 25 25 25 25 25 28 32 35 38 40 38 32 22 13 9 10 11 13 15 15 14 14 14 15 13 12 10 10 13
32 33 33 34 34 34 34 34 34 35 35 35 35 35 35 35 35 34 34 34 33 32 31 30 30 29 29 28 29 29 30 31 30 29 28 27 26 25 25 25 25 25 24 24 25 28 31 34 36 38 38 33 25 16 11 9 9 11 13 14 14 15 15 14 12 11 10 11 13
34 34 35 35 35 35 34 34 35 35 35 35 35 35 35 35 35 34 34 34 33 33 32 32 31 30 29 29 28 29 29 30 30 30 29 28 27 26 25 25 25 25 24 23 25 27 30 32 34 37 38 34 26 19 14 10 10 11 12 13 14 15 15 14 12 10 9 11 13
35 36 36 36 35 35 35 35 34 34 34 34 34 34 34 34 34 34 34 34 33 33 32 32 32 31 29 29 28 28 28 29 29 29 29 29 27 26 26 26 26 25 24 24 25 28 30 31 32 36 38 35 27 21 17 12 11 12 13 14 15 15 16 16 12 9 9 11 13
36 36 36 36 36 36 35 34 34 33 33 33 34 34 34 33 33 33 33 33 33 32 32 32 32 30 29 29 28 28 28 28 28 29 29 28 27 27 26 27 27 26 24 24 26 28 29 30 31 34 37 35 28 23 18 14 13 13 14 15 15 15 16 17 14 11 10 11 13
37 37 37 36 36 35 34 33 32 32 33 33 33 33 32 32 32 32 32 32 32 32 32 32 31 31 30 30 29 28 27 27 28 29 28 27 27 26 26 27 27 26 24 24 26 28 28 29 30 33 35 33 28 24 20 16 15 15 16 16 15 16 18 19 15 12 11 13 14
36 36 36 35 34 33 32 31 31 31 31 31 31 31 31 31 31 31 31 31 31 31 31 32 32 31 31 32 31 30 29 28 28 28 28 27 26 25 25 26 26 26 24 25 26 26 27 28 29 32 33 32 28 25 22 18 16 16 17 16 16 17 19 19 14 12 12 15 17
35 34 34 33 32 31 31 30 30 30 30 30 30 29 29 30 30 30 31 31 31 31 31 32 33 33 33 33 32 31 31 30 29 28 27 26 25 25 25 25 26 25 24 25 25 25 25 26 28 30 31 29 27 25 22 19 17 17 17 17 17 18 19 18 14 13 14 17 18
33 32 32 31 30 30 30 29 29 28 28 28 28 28 29 29 29 30 31 31 31 31 31 32 33 34 34 33 32 32 32 31 29 28 26 25 24 24 24 24 25 25 24 25 25 24 24 25 27 29 29 27 26 24 21 19 18 17 18 18 18 18 19 18 15 14 15 17 17
31 30 29 29 29 29 29 28 28 28 27 27 28 28 28 29 30 30 31 32 32 32 32 32 33 33 33 32 32 31 31 30 29 27 25 24 23 23 24 24 24 24 24 24 24 23 23 24 26 28 28 27 26 23 19 17 17 17 17 17 17 18 19 20 18 16 15 14 14
29 28 28 28 28 28 28 28 27 27 27 27 28 28 29 29 30 31 32 32 32 32 32 32 32 32 31 31 31 31 30 30 29 27 25 23 23 23 24 24 24 24 24 24 23 22 22 23 25 26 27 27 25 21 18 16 16 16 16 16 16 17 20 21 20 18 15 12 12
28 28 27 27 27 27 27 27 27 27 27 28 28 29 30 30 31 32 32 32 31 31 31 31 30 29 29 29 30 30 31 30 29 26 24 23 23 24 24 24 23 23 23 23 22 21 21 22 24 25 26 26 23 20 17 16 16 15 15 14 15 17 21 23 22 19 15 13 13
28 27 27 27 27 27 28 27 27 28 28 29 29 30 31 31 31 32 32 31 31 30 30 29 28 28 29 29 30 31 31 31 29 26 23 23 23 25 25 24 23 23 22 21 20 20 21 22 23 25 26 24 20 18 17 17 16 15 14 14 15 18 22 25 24 22 19 18 18
27 27 27 28 28 28 28 28 28 28 29 29 30 31 31 31 31 31 31 31 30 30 30 29 28 29 30 31 31 32 32 32 29 25 22 23 24 25 25 24 22 22 21 20 19 20 21 23 24 26 26 22 19 18 18 17 17 16 14 14 16 20 23 26 26 26 26 25 24
27 27 28 28 28 29 29 29 29 29 29 30 30 31 31 31 31 31 30 30 30 30 30 29 30 31 32 32 32 32 32 31 29 25 23 23 25 26 25 23 21 21 20 19 19 20 22 24 24 26 26 22 20 19 18 18 18 17 16 16 18 20 23 26 28 29 30 30 29
27 27 28 28 29 29 29 29 29 29 29 30 30 31 30 30 30 30 30 29 29 29 30 30 31 32 33 33 33 32 32 31 28 25 23 24 25 25 24 22 20 20 19 18 19 21 24 25 25 26 26 23 22 20 19 19 19 19 19 19 20 21 22 24 27 29 30 31 30
27 27 28 28 29 29 29 29 29 29 29 30 30 30 30 29 29 29 28 28 28 29 30 31 32 33 34 33 33 32 32 30 28 25 24 24 25 25 23 21 20 19 18 18 20 23 25 25 26 26 26 24 24 22 20 20 20 20 20 21 22 22 22 22 23 24 26 27 29
27 27 28 28 28 28 28 28 28 29 29 29 30 30 29 28 28 28 28 28 28 28 29 31 32 34 34 34 33 32 32 31 27 25 24 24 25 24 23 21 19 17 17 18 21 24 25 25 27 28 27 26 25 24 22 21 21 21 21 21 22 22 22 21 21 21 22 24 26
27 28 28 28 28 28 28 28 28 29 29 29 29 29 28 27 27 27 28 28 28 29 29 31 32 33 34 33 32 32 31 31 27 24 23 24 25 24 23 21 19 17 16 19 22 24 25 25 27 29 29 27 27 26 25 23 22 21 21 21 22 22 22 22 21 21 21 23 25
Wind_Direction
341 341 342 342 342 341 340 341 341 340 339 339 339 340 341 341 340 339 337 335 332 331 330 331 332 333 334 335 334 331 329 328 327 327 327 327 327 328 329 330 329 329 329 328 328 329 330 330 329 327 326 325 323 322 322 322 324 325 326 326 325 323 320 317 312 308 306 307 310
341 342 342 343 342 342 342 342 342 342 341 341 341 342 343 343 341 339 337 335 333 332 332 332 333 334 335 334 333 330 328 328 328 328 327 328 329 330 331 331 331 331 331 331 332 333 333 333 331 329 326 325 323 322 323 326 328 327 326 324 321 318 314 310 306 303 304 306 310
341 342 343 343 343 343 343 343 343 343 342 342 343 344 345 344 342 339 337 335 335 334 334 333 334 335 335 334 332 330 329 329 328 328 328 329 330 331 332 333 332 332 333 334 335 336 336 334 331 328 325 324 323 325 327 331 332 329 324 320 317 313 310 306 304 303 305 308 314
342 342 343 343 343 343 344 344 343 343 343 343 344 346 346 346 343 340 338 337 336 336 336 336 336 336 336 334 332 331 330 330 329 329 329 330 332 333 334 334 334 335 336 337 337 337 336 333 330 326 324 324 326 328 331 333 332 327 322 318 315 313 310 308 307 307 310 314 320
342 343 343 343 343 344 344 345 344 344 344 345 345 346 347 346 344 341 339 338 337 337 338 338 338 337 336 334 333 332 332 331 331 331 331 332 333 334 335 336 337 338 339 340 339 338 335 331 328 325 325 325 328 331 334 334 330 325 321 319 317 315 313 312 311 313 316 321 324
342 343 343 344 344 345 345 345 345 345 345 345 346 346 346 345 343 341 339 338 338 339 340 341 340 339 337 336 335 333 332 332 332 333 334 335 335 336 337 338 340 341 342 341 340 337 333 330 327 325 325 327 329 332 334 332 327 324 322 322 320 318 315 314 315 318 323 326 324
342 343 343 344 345 345 345 345 345 345 345 346 346 346 346 344 343 341 339 339 339 340 341 342 342 341 339 337 335 334 333 333 334 335 336 337 337 338 339 340 341 342 342 341 339 335 332 330 327 326 326 326 327 328 329 327 325 325 326 326 323 319 316 316 319 324 327 326 319
343 343 344 344 345 345 345 345 345 345 346 346 346 346 345 344 342 341 340 340 340 341 343 343 343 342 340 337 335 333 333 334 335 337 338 339 339 340 341 341 342 342 341 340 337 334 332 330 328 327 326 325 323 321 322 323 324 326 328 328 325 320 317 318 322 326 326 322 315
344 344 345 345 345 345 345 345 345 346 346 347 346 346 345 343 342 341 341 341 341 343 344 344 344 342 340 337 334 333 334 335 337 338 339 340 341 341 341 342 341 341 340 338 336 334 332 330 329 326 324 322 320 318 318 320 322 325 327 328 326 322 318 319 323 326 324 319 312
345 345 345 345 346 346 345 345 346 347 347 347 347 346 345 343 343 342 342 342 343 344 345 345 344 342 339 336 335 334 335 336 337 338 340 342 342 342 342 341 341 339 338 337 335 334 333 331 329 326 324 322 320 319 318 318 319 321 324 326 325 322 319 319 323 324 322 317 311
345 345 345 346 346 346 346 346 346 347 348 348 347 346 345 345 344 344 344 344 344 345 345 346 344 341 338 336 335 334 335 336 337 339 341 342 343 343 342 341 340 338 337 336 336 336 334 332 330 327 325 323 322 321 320 320 320 321 323 324 324 320 317 319 322 324 321 315 311
345 345 346 346 346 346 346 347 347 348 348 349 348 347 346 346 346 346 346 346 345 345 345 346 344 341 338 337 336 335 335 335 337 339 341 343 343 343 342 341 340 338 337 337 338 337 336 333 331 328 326 324 323 323 323 323 324 324 324 324 322 317 316 319 323 323 319 313 310
345 345 346 346 346 346 346 347 347 347 348 348 348 347 347 348 348 348 348 346 345 345 345 345 343 341 339 337 336 335 334 335 337 340 342 343 343 342 341 340 340 339 338 339 340 339 337 335 333 329 327 326 326 327 327 327 326 326 325 323 319 315 316 321 324 322 315 310 309
344 345 345 345 346 346 345 345 346 346 346 347 347 347 347 348 349 349 349 347 345 344 344 344 343 342 341 339 338 336 334 334 336 339 342 343 342 341 340 340 340 340 340 340 341 342 340 338 334 331 329 330 332 332 332 330 328 325 323 320 315 314 318 324 325 319 312 309 308
343 344 344 344 344 344 344 344 344 344 344 344 345 346 346 346 347 348 348 346 345 344 343 343 343 343 343 342 339 337 335 334 336 339 341 342 341 340 339 340 340 341 341 341 343 344 343 340 335 333 335 337 339 339 337 333 329 325 321 317 313 315 323 328 325 318 312 311 313
342 342 342 342 342 342 341 341 341 341 341 341 342 343 343 343 344 345 345 344 343 343 343 343 342 343 343 343 341 339 336 335 337 339 340 341 340 339 339 340 340 341 342 343 345 346 345 341 337 338 341 343 344 343 340 334 329 325 320 312 312 320 328 331 326 321 318 319 324
340 340 340 340 339 339 339 339 338 338 338 339 339 340 340 340 340 341 342 341 341 341 341 342 342 343 343 343 343 341 339 337 338 339 340 339 339 338 338 339 340 341 343 344 347 348 347 341 340 343 346 347 347 345 342 336 330 323 316 310 317 328 334 335 331 328 328 330 334
338 338 338 337 337 337 337 337 337 337 337 337 337 337 337 337 338 338 339 339 339 339 338 339 341 342 342 343 343 343 341 339 338 338 339 338 337 336 337 338 340 341 343 345 348 349 347 343 345 348 350 348 347 347 346 343 338 330 323 320 326 334 338 338 336 334 334 337 341
337 337 336 336 336 336 336 337 337 337 337 337 337 337 337 338 338 338 338 338 338 337 336 337 338 339 340 342 343 344 343 341 339 338 337 335 334 334 335 337 340 342 343 345 347 349 348 347 350 351 350 348 348 351 354 353 350 343 335 332 334 337 339 339 338 336 336 340 343
337 337 337 337 337 337 338 338 339 339 339 339 339 340 340 340 340 340 339 338 337 336 335 335 335 336 338 340 341 342 343 342 339 337 335 334 333 333 334 336 339 341 343 344 347 349 350 350 351 351 350 350 352 355 358 356 352 346 342 341 343 342 341 338 336 335 336 339 341
339 339 339 339 340 340 341 341 341 341 341 342 342 343 343 343 343 342 340 339 338 336 334 334 334 334 335 337 337 338 340 340 339 337 335 334 333 333 334 335 338 340 341 343 346 350 352 351 349 348 350 354 356 357 354 351 349 348 348 349 350 347 340 335 333 333 334 337 340
343 343 343 343 343 343 343 343 343 344 344 345 345 345 345 344 343 342 341 340 338 336 334 333 333 333 333 334 334 334 334 336 336 337 336 335 334 333 333 334 337 339 340 342 346 351 352 349 345 345 349 357 360 357 351 350 351 351 353 354 352 345 337 332 331 330 331 336 345
346 346 346 345 345 345 345 345 346 346 346 346 346 346 344 343 343 342 341 340 339 337 336 335 333 333 332 332 330 329 329 331 333 336 338 338 335 334 333 334 337 339 340 342 346 350 349 345 341 342 348 357 2 2 357 355 356 357 356 353 346 337 331 330 330 328 328 339 354
349 348 347 346 346 346 346 347 348 348 347 346 345 344 343 343 342 341 341 340 340 339 338 337 335 334 332 331 328 327 326 327 331 334 338 338 337 335 335 335 337 339 340 342 346 347 344 340 338 342 348 357 3 8 8 3 4 3 357 346 336 330 329 331 331 327 330 348 1
349 348 347 346 346 346 348 348 348 347 346 345 344 343 342 342 341 341 340 341 341 341 340 339 337 336 333 330 327 325 324 326 329 332 335 337 337 336 336 338 339 339 340 342 344 342 339 338 339 344 350 357 4 12 16 13 11 6 355 341 333 331 334 337 335 335 346 2 5
349 347 346 346 346 347 348 347 346 344 343 342 342 341 341 341 341 341 341 341 341 342 341 340 339 337 334 331 328 326 325 326 328 331 333 334 336 337 339 340 340 341 341 343 342 339 336 337 340 346 352 357 5 13 19 20 15 6 354 341 336 337 342 348 352 2 13 13 7
347 346 345 345 345 346 346 345 343 341 340 340 340 340 341 341 341 341 341 341 342 342 342 342 341 338 335 334 332 330 329 329 330 331 332 334 335 338 340 341 342 342 343 343 340 337 337 338 340 346 352 358 5 13 20 21 14 3 352 343 340 343 351 1 13 26 28 16 11
345 344 343 343 343 343 342 342 340 340 339 340 340 340 341 341 341 341 341 342 342 343 343 342 342 340 339 338 337 336 334 333 333 332 333 334 336 338 340 341 342 343 344 343 339 337 338 339 341 346 351 357 3 11 19 22 14 1 351 346 345 351 1 12 26 37 32 19 19
342 341 341 340 340 340 340 340 340 340 340 340 341 341 341 341 342 342 342 343 343 343 343 342 341 341 341 341 341 341 339 338 337 336 336 337 338 340 341 342 342 343 345 344 341 339 338 339 341 347 352 356 360 8 17 22 15 2 352 349 351 359 10 22 34 40 33 26 29
340 339 338 338 338 339 339 340 341 341 341 342 342 342 342 343 343 343 344 344 344 344 343 342 342 342 342 343 343 342 342 342 342 341 340 340 340 341 342 342 342 344 346 345 342 340 339 340 342 348 354 355 358 5 14 19 14 3 354 352 355 5 17 29 39 41 39 38 40
337 337 337 338 339 340 341 342 343 343 343 344 344 344 344 344 344 344 345 345 345 344 343 342 342 342 343 345 344 344 344 345 346 346 345 344 343 342 342 342 343 346 347 345 342 341 342 342 344 350 354 354 356 2 9 14 11 2 355 353 357 6 17 28 37 45 48 45 41
337 338 339 341 343 343 344 345 345 345 346 346 346 345 345 345 345 345 346 347 346 345 343 343 342 343 344 346 347 348 348 349 350 350 349 347 345 343 343 344 345 347 347 343 343 344 345 344 347 351 353 352 353 358 6 10 6 359 355 354 358 5 14 23 35 50 56 45 32
340 342 343 345 346 346 346 346 347 347 348 348 347 347 346 346 346 346 347 348 347 345 344 343 342 342 344 346 348 350 351 353 354 354 353 350 347 345 345 346 348 348 345 342 344 347 348 348 350 352 351 349 351 358 7 11 6 359 354 354 358 6 16 26 42 55 58 43 30
345 346 348 349 349 348 348 348 349 349 349 349 349 348 347 346 346 346 347 347 346 345 344 344 343 343 345 347 349 350 352 355 357 357 355 352 349 348 348 350 352 349 345 343 345 349 351 353 354 352 349 348 353 3 12 13 8 0 355 354 0 12 25 39 52 60 59 47 41
349 350 351 351 351 351 351 351 351 351 350 349 349 348 348 346 346 346 346 347 346 345 345 345 346 347 349 350 350 350 352 355 359 360 357 354 351 351 351 353 354 351 346 345 348 351 354 357 356 352 350 353 3 13 17 14 10 4 358 357 8 22 35 47 56 61 59 53 49
352 353 353 353 353 353 353 352 352 351 350 349 348 348 347 346 346 346 346 346 345 345 345 347 348 349 350 350 349 348 350 355 359 0 358 355 353 352 353 355 356 353 349 348 349 352 356 2 359 356 358 6 16 21 19 16 13 10 9 11 22 33 42 48 52 55 57 55 51
355 355 355 354 354 353 353 352 351 349 348 348 347 347 346 346 346 346 346 346 345 345 346 347 348 350 350 349 346 345 347 353 359 0 358 355 355 354 355 357 357 355 352 350 348 352 360 8 6 3 6 17 23 23 20 18 18 20 24 31 38 45 49 50 51 53 54 54 51
357 356 355 354 353 352 351 350 349 347 347 347 346 346 346 346 345 346 346 346 345 345 345 346 348 349 350 348 345 343 344 350 357 360 358 356 356 356 358 360 359 356 352 350 348 352 1 10 10 8 11 20 23 23 21 21 23 28 35 43 49 53 55 55 56 57 57 55 52
357 356 355 354 352 351 350 348 347 346 346 345 345 345 345 345 345 345 345 345 344 345 345 347 348 349 348 347 345 343 344 347 355 360 0 358 358 359 2 4 2 356 351 349 350 357 6 13 12 13 16 21 22 23 23 23 25 29 35 42 47 51 53 53 54 56 57 56 52
358 356 355 353 351 350 349 347 347 346 345 344 345 345 345 344 344 344 344 344 344 344 345 346 348 348 347 347 347 347 347 347 353 1 4 1 0 2 6 7 3 357 352 351 355 4 13 15 12 14 20 24 23 22 22 23 25 28 31 34 37 40 43 44 46 48 51 53 50
358 356 354 352 350 349 348 347 346 346 345 345 345 345 344 343 343 343 344 343 342 342 343 344 346 347 349 351 353 354 353 350 353 2 9 7 4 4 6 7 4 360 357 358 1 9 14 14 11 14 20 27 23 21 20 22 24 27 30 31 31 31 33 34 37 41 45 48 48